Regional Weather Roundup
Issued by NWS Charleston, SC

Current Version | Previous Version | Text Only | Print | Product List | Glossary Off
Versions: 1 2 3 4 5 6 7 8 9 10 11 12 13 14 15 16 17 18 19 20 21 22 23 24 25 26 27 28 29 30 31 32 33 34 35 36 37 38 39 40 41 42 43 44 45 46 47 48 49 50

000
ASUS42 KCHS 170412
RWRCHS

REGIONAL WEATHER ROUNDUP
NATIONAL WEATHER SERVICE CHARLESTON SC
1200 AM EDT TUE OCT 17 2017

NOTE: "FAIR" INDICATES FEW OR NO CLOUDS BELOW 12,000 FEET WITH NO
SIGNIFICANT WEATHER AND/OR OBSTRUCTIONS TO VISIBILITY.

NOT ALL STATIONS ARE QUALITY CONTROLLED. USE DATA WITH CAUTION...
ESPECIALLY DEWPOINT OBSERVATIONS.

SCZ027-030-031-034>040-042>050-170500-
...SOUTHEAST SOUTH CAROLINA...

CITY           SKY/WX    TMP DP  RH WIND       PRES   REMARKS
N CHARLESTON   CLOUDY    60  56  86 N13       30.15S
WATERFRONT PRK NOT AVBL
JOHNS ISLAND   FAIR      63  55  77 N13       30.14S
PINOPOLIS        N/A     63  59  88 NE16      30.07R
MONCKS CORNER  FAIR      59  55  88 NE8       30.17R
SUMMERVILLE    FAIR      59  54  82 N7        30.18S
BEAUFORT MCAS  MOCLDY    62  57  83 NE12      30.15R
BEAUFORT ARPT  MOCLDY    63  55  77 NE18G32   30.14S
HILTON HEAD IS CLOUDY    64  55  72 NE16G30   30.14R
WALTERBORO     CLOUDY    55  54  94 N3        30.17F
ALLENDALE      NOT AVBL

...SOUTHERN MIDLANDS AND PEE DEE...

CITY           SKY/WX    TMP DP  RH WIND       PRES   REMARKS
GEORGETOWN     MOCLDY    59  54  82 N8        30.17R
KINGSTREE      FAIR      55  54  94 CALM      30.19S
ORANGEBURG     CLEAR     58  47  66 N10       30.20R
BARNWELL         N/A     61  48  63 N12       30.20R
AIKEN          FAIR      55  43  62 N9        30.25R
MANNING        FOG       55  54  94 MISG      30.19S VSB<1/4
COLUMBIA       PTCLDY    59  43  55 N6        30.21S
SUMTER         CLEAR     56  45  68 N10       30.18S
FLORENCE       PTCLDY    56  52  86 N7        30.20S
MYRTLE BEACH   PTCLDY    60  52  74 NE14      30.17S
N MYRTLE BEACH CLEAR     60  52  74 NE10G25   30.15R

$$

GAZ063-065-086>088-099>101-113>116-118-119-134>141-150-170500-
...SOUTHEAST GEORGIA...

CITY           SKY/WX    TMP DP  RH WIND       PRES   REMARKS
SAVANNAH ARPT  MOCLDY    64  54  69 NE16G22   30.14S
HUNTER AAF     CLOUDY    65  54  69 NE17      30.10R
FORT STEWART   CLOUDY    65  51  60 NE17      30.11R
STATESBORO     PTCLDY    63  49  61 NE7       30.17R
SYLVANIA       PTCLDY    62  53  73 NE10      30.18S
CLAXTON        FAIR      65  54  67 N12       30.16R

...CSRA...CENTRAL AND FAR SOUTHEAST GEORGIA...

CITY           SKY/WX    TMP DP  RH WIND       PRES   REMARKS
THOMSON        CLEAR     61  43  52 E9G18     30.27R
AUGUSTA-BUSH   CLOUDY    61  50  67 N10       30.21R
AUGUSTA-DANIEL CLOUDY    62  44  51 N13       30.22R
SWAINSBORO     FAIR      63  52  67 NE12G17   30.19R
VIDALIA        PTCLDY    64  52  63 NE12G23   30.16R
EASTMAN        FAIR      67  44  43 E14G23    30.18R
HAZLEHURST     FAIR      67  47  49 NE7G21    30.13R
ALMA           CLOUDY    68  50  52 NE9G17    30.11R
WAYCROSS       CLOUDY    69  53  55 NE16G23   30.10R
JESUP          NOT AVBL
BAXLEY         CLOUDY    64  50  59 NE17G23   30.12S
BRUNSWICK      CLOUDY    66  61  82 N13       30.10R
SAINT SIMONS   CLOUDY    67  64  90 N16G26    30.08R

$$

SCZ027-028-034-036>038-045-046-048>050-GAZ119-141-170500-
...LAKE AND SUPPLEMENTAL COASTAL OBSERVATIONS...

STATION/POSITION TIME  TEMP    WIND        PRES    WAVE   SWELL
                       AIR SEA DIR/SP/G            HT/PER HT/PER/DIR
                 (UTC) (F)     (DEG/KT/KT) (MB)    (FT/S) (FT/S/D)
WINYAH BAY       0245   62      20/ 11     1021.0
LAKE MURRAY      0320   58      10/  2/  7 1022.7
ACE BASIN NERRS  0245   63      10/  5     1020.0
FORT PULASKI     0336   67 80   30/ 15/ 20 1020.3R
SAPELO ISLAND    0300   67      30/ 15     1019.0

$$

ANZ835-935-AMZ111-154-330-350-352-354-370-450-454-472-170500-
...C-MAN AND BUOY OBSERVATIONS...

STATION/POSITION TIME  TEMP    WIND        PRES    WAVE   SWELL
                       AIR SEA DIR/SP/G            HT/PER HT/PER/DIR
                 (UTC) (F)     (DEG/KT/KT) (MB)    (FT/S) (FT/S/D)
BUOY 41004       0350   70 81   20/ 27/ 35 1018.3R   9/ 7
BUOY 41008       0350   70 80   40/ 27/ 33 1017.6R   7/ 6
FOLLY BEACH CMAN 0300   65      10/ 19/ 25 1020.9R
CAPERS NEARSHORE 0308   64 78   30/ 23/ 33 1019.5R
FRIPP NEARSHORE  NOT AVBL


STATION/POSITION TIME  TEMP    WIND        PRES    WAVE   SWELL
                       AIR SEA DIR/SP/G            HT/PER HT/PER/DIR
                 (UTC) (F)     (DEG/KT/KT) (MB)    (FT/S) (FT/S/D)
5E ST. MARYS GA  0330      81                N/A     3/ 3
FRYING PAN BUOY  0350   68 78   20/ 29/ 35 1018.9R   9/ 7
BUOY 41025       0350   67 81   10/ 27/ 33 1018.0R   8/ 7
CAPE LOOKOUT NC  0300   62     360/ 23/ 26 1019.5R
BUOY 41002       0350   78 80  250/  4/  4 1014.7F   4/ 7   5/ 70/ 7
BUOY 41010       NOT AVBL
ST AUGUSTINE FL  0400   71 82  360/  2/  3 1016.3F


$$




USA.gov is the U.S. government's official web portal to all federal, state and local government web resources and services.